SAS430 EKCH-ESGG

Flight info

Callsign SAS430
Flight time 0h 28m
Altitude 22000
Route VEDAR L997 RISMA
Aircraft A319/M-SDE3FGHIRWY/LB1

Departure

Time 2026-04-24 08:05
Airport Copenhagen Kastrup Airport (EKCH)

Arrival

Time 2026-04-24 08:34
Airport Göteborg Landvetter Airport (ESGG)
Time Latitude Longitude Altitude Speed Heading
2026-04-24 07:27 55.62698 12.64578 19 ft 0 kts 282°
2026-04-24 07:51 55.62697 12.64581 18 ft 0 kts 281°
2026-04-24 07:51 55.62694 12.64593 18 ft 1 kts 275°
2026-04-24 07:52 55.62694 12.64601 18 ft 2 kts 272°
2026-04-24 07:52 55.62690 12.64626 18 ft 2 kts 290°
2026-04-24 07:52 55.62685 12.64652 18 ft 2 kts 287°
2026-04-24 07:52 55.62681 12.64677 18 ft 2 kts 288°
2026-04-24 07:53 55.62677 12.64702 18 ft 2 kts 288°
2026-04-24 07:53 55.62672 12.64728 19 ft 2 kts 288°
2026-04-24 07:53 55.62669 12.64747 19 ft 0 kts 288°
2026-04-24 07:53 55.62670 12.64734 19 ft 4 kts 281°
2026-04-24 07:54 55.62671 12.64693 18 ft 3 kts 248°
2026-04-24 07:54 55.62653 12.64670 18 ft 3 kts 192°
2026-04-24 07:54 55.62622 12.64660 18 ft 3 kts 191°
2026-04-24 07:54 55.62614 12.64657 19 ft 0 kts 191°
2026-04-24 07:57 55.62597 12.64653 18 ft 5 kts 185°
2026-04-24 07:57 55.62552 12.64654 18 ft 7 kts 176°
2026-04-24 07:57 55.62492 12.64658 18 ft 9 kts 174°
2026-04-24 07:57 55.62415 12.64675 17 ft 5 kts 174°
2026-04-24 07:58 55.62409 12.64676 17 ft 0 kts 175°
2026-04-24 07:58 55.62407 12.64677 17 ft 1 kts 176°
2026-04-24 07:59 55.62386 12.64677 16 ft 5 kts 180°
2026-04-24 07:59 55.62338 12.64684 15 ft 8 kts 161°
2026-04-24 07:59 55.62297 12.64775 15 ft 10 kts 122°
2026-04-24 07:59 55.62253 12.64894 15 ft 12 kts 122°
2026-04-24 08:00 55.62204 12.65027 16 ft 13 kts 123°
2026-04-24 08:00 55.62156 12.65110 15 ft 10 kts 176°
2026-04-24 08:00 55.62124 12.65089 15 ft 7 kts 211°
2026-04-24 08:00 55.62100 12.65062 15 ft 0 kts 212°
2026-04-24 08:01 55.62081 12.65040 15 ft 10 kts 215°
2026-04-24 08:01 55.62021 12.64967 15 ft 10 kts 214°
2026-04-24 08:01 55.61953 12.64888 15 ft 12 kts 213°
2026-04-24 08:01 55.61875 12.64797 15 ft 14 kts 214°
2026-04-24 08:02 55.61789 12.64696 15 ft 15 kts 214°
2026-04-24 08:02 55.61700 12.64594 15 ft 15 kts 212°
2026-04-24 08:02 55.61607 12.64491 15 ft 16 kts 213°
2026-04-24 08:02 55.61524 12.64392 15 ft 14 kts 213°
2026-04-24 08:03 55.61445 12.64305 16 ft 9 kts 241°
2026-04-24 08:03 55.61391 12.64235 16 ft 10 kts 208°
2026-04-24 08:03 55.61318 12.64158 15 ft 13 kts 213°
2026-04-24 08:03 55.61233 12.64101 16 ft 13 kts 169°
2026-04-24 08:04 55.61181 12.64234 15 ft 15 kts 78°
2026-04-24 08:04 55.61215 12.64419 15 ft 16 kts 70°
2026-04-24 08:04 55.61253 12.64616 15 ft 17 kts 71°
2026-04-24 08:04 55.61292 12.64821 15 ft 17 kts 60°
2026-04-24 08:05 55.61461 12.65086 15 ft 61 kts 40°
2026-04-24 08:05 55.61964 12.65865 15 ft 128 kts 41°
2026-04-24 08:05 55.62729 12.67043 305 ft 153 kts 39°
2026-04-24 08:05 55.63500 12.68259 1014 ft 149 kts 39°
2026-04-24 08:06 55.64242 12.69432 1748 ft 145 kts 38°
2026-04-24 08:06 55.64985 12.70600 2451 ft 142 kts 31°
2026-04-24 08:06 55.65862 12.71087 3073 ft 137 kts 352°
2026-04-24 08:06 55.66762 12.70453 3600 ft 147 kts 334°
2026-04-24 08:07 55.67768 12.69922 4055 ft 163 kts 354°
2026-04-24 08:07 55.68944 12.69627 4551 ft 179 kts 343°
2026-04-24 08:07 55.70182 12.68802 5018 ft 202 kts 339°
2026-04-24 08:07 55.71537 12.67807 5607 ft 220 kts 339°
2026-04-24 08:08 55.72966 12.66784 6458 ft 226 kts 339°
2026-04-24 08:08 55.74393 12.65786 7439 ft 226 kts 340°
2026-04-24 08:08 55.75850 12.64785 8314 ft 229 kts 340°
2026-04-24 08:09 55.78854 12.62754 9913 ft 237 kts 341°
2026-04-24 08:09 55.80402 12.61719 10670 ft 241 kts 341°
2026-04-24 08:09 55.81968 12.60673 11407 ft 245 kts 341°
2026-04-24 08:09 55.83545 12.59622 12313 ft 239 kts 340°
2026-04-24 08:10 55.85024 12.58636 13298 ft 228 kts 340°
2026-04-24 08:10 55.86480 12.57665 14074 ft 224 kts 340°
2026-04-24 08:10 55.87950 12.56686 14706 ft 227 kts 340°
2026-04-24 08:10 55.89426 12.55707 15309 ft 229 kts 341°
2026-04-24 08:11 55.90947 12.54903 15899 ft 231 kts 344°
2026-04-24 08:11 55.92506 12.54171 16476 ft 234 kts 344°
2026-04-24 08:11 55.94068 12.53439 17071 ft 236 kts 343°
2026-04-24 08:11 55.95649 12.52686 17629 ft 239 kts 343°
2026-04-24 08:12 55.97266 12.51909 18173 ft 241 kts 342°
2026-04-24 08:12 55.98878 12.51127 18716 ft 244 kts 342°
2026-04-24 08:12 56.00517 12.50328 19253 ft 247 kts 342°
2026-04-24 08:12 56.02184 12.49511 19660 ft 255 kts 342°
2026-04-24 08:13 56.03922 12.48657 20040 ft 263 kts 342°
2026-04-24 08:13 56.05697 12.47782 20417 ft 272 kts 342°
2026-04-24 08:13 56.07548 12.46869 20806 ft 280 kts 342°
2026-04-24 08:13 56.09446 12.45933 21187 ft 289 kts 342°
2026-04-24 08:14 56.11411 12.44962 21575 ft 297 kts 342°
2026-04-24 08:14 56.13425 12.43967 21936 ft 306 kts 342°
2026-04-24 08:14 56.15533 12.42921 22028 ft 324 kts 342°
2026-04-24 08:14 56.17777 12.41804 22041 ft 344 kts 342°
2026-04-24 08:15 56.20108 12.40644 22042 ft 355 kts 342°
2026-04-24 08:15 56.22497 12.39464 22037 ft 357 kts 342°
2026-04-24 08:15 56.24874 12.38286 22042 ft 357 kts 342°
2026-04-24 08:15 56.27275 12.37093 22045 ft 358 kts 342°
2026-04-24 08:16 56.29664 12.35905 22046 ft 358 kts 342°
2026-04-24 08:16 56.32080 12.34701 22047 ft 358 kts 341°
2026-04-24 08:16 56.34446 12.33519 22051 ft 358 kts 341°
2026-04-24 08:16 56.36858 12.32314 22055 ft 358 kts 341°
2026-04-24 08:17 56.39238 12.31120 22054 ft 357 kts 341°
2026-04-24 08:17 56.41604 12.29933 22048 ft 357 kts 341°
2026-04-24 08:17 56.44058 12.28696 22057 ft 375 kts 341°
2026-04-24 08:17 56.46618 12.27402 22063 ft 392 kts 341°
2026-04-24 08:18 56.49285 12.26056 22059 ft 405 kts 341°
2026-04-24 08:18 56.51997 12.24687 22051 ft 409 kts 341°
2026-04-24 08:18 56.54742 12.23303 22044 ft 409 kts 342°
2026-04-24 08:18 56.57452 12.21936 21787 ft 403 kts 342°
2026-04-24 08:19 56.60135 12.20579 21137 ft 402 kts 342°
2026-04-24 08:19 56.62814 12.19219 20459 ft 400 kts 342°
2026-04-24 08:19 56.65449 12.17879 19878 ft 397 kts 342°
2026-04-24 08:19 56.68086 12.16536 19306 ft 393 kts 342°
2026-04-24 08:20 56.70702 12.15202 18721 ft 390 kts 342°
2026-04-24 08:20 56.73298 12.13877 18163 ft 387 kts 342°
2026-04-24 08:20 56.75862 12.12565 17583 ft 385 kts 342°
2026-04-24 08:20 56.78417 12.11257 17022 ft 381 kts 342°
2026-04-24 08:21 56.80975 12.09946 16668 ft 378 kts 342°
2026-04-24 08:21 56.83470 12.08667 16407 ft 371 kts 342°
2026-04-24 08:21 56.85912 12.07412 16172 ft 360 kts 342°
2026-04-24 08:21 56.88297 12.06186 15716 ft 357 kts 342°
2026-04-24 08:22 56.90698 12.04943 14806 ft 366 kts 343°
2026-04-24 08:22 56.93166 12.03665 13789 ft 376 kts 343°
2026-04-24 08:22 56.95681 12.02361 12887 ft 381 kts 343°
2026-04-24 08:22 56.98196 12.01060 12284 ft 373 kts 343°
2026-04-24 08:23 57.00600 11.99816 11803 ft 347 kts 343°
2026-04-24 08:23 57.02871 11.98695 11296 ft 324 kts 348°
2026-04-24 08:23 57.05033 11.98316 10792 ft 306 kts 359°
2026-04-24 08:23 57.07079 11.98635 10303 ft 291 kts
2026-04-24 08:24 57.09016 11.99115 10064 ft 272 kts
2026-04-24 08:24 57.10861 11.99587 9918 ft 269 kts
2026-04-24 08:24 57.12701 12.00052 9555 ft 269 kts
2026-04-24 08:24 57.14560 12.00519 9190 ft 269 kts
2026-04-24 08:25 57.16402 12.00977 8844 ft 268 kts
2026-04-24 08:25 57.18247 12.01437 8503 ft 267 kts
2026-04-24 08:25 57.20075 12.01891 8225 ft 264 kts
2026-04-24 08:25 57.21888 12.02344 7923 ft 262 kts
2026-04-24 08:26 57.23686 12.02793 7601 ft 260 kts
2026-04-24 08:26 57.25474 12.03240 7271 ft 260 kts
2026-04-24 08:26 57.27238 12.03680 6949 ft 258 kts
2026-04-24 08:26 57.29000 12.04121 6699 ft 254 kts
2026-04-24 08:27 57.30757 12.04563 6422 ft 252 kts
2026-04-24 08:27 57.32503 12.05000 6024 ft 253 kts
2026-04-24 08:27 57.34219 12.05430 5765 ft 250 kts
2026-04-24 08:27 57.35956 12.05864 5405 ft 251 kts
2026-04-24 08:28 57.37649 12.06290 5166 ft 247 kts
2026-04-24 08:28 57.39346 12.06718 4935 ft 243 kts
2026-04-24 08:28 57.41000 12.07136 4688 ft 240 kts
2026-04-24 08:28 57.42654 12.07553 4401 ft 238 kts
2026-04-24 08:29 57.44248 12.08249 4170 ft 236 kts 17°
2026-04-24 08:29 57.45756 12.09372 3964 ft 232 kts 21°
2026-04-24 08:29 57.47165 12.10568 3825 ft 216 kts 22°
2026-04-24 08:29 57.48464 12.11732 3761 ft 197 kts 23°
2026-04-24 08:30 57.49654 12.12816 3662 ft 189 kts 23°
2026-04-24 08:30 57.50809 12.13872 3559 ft 182 kts 23°
2026-04-24 08:30 57.51960 12.14923 3315 ft 183 kts 24°
2026-04-24 08:30 57.53104 12.15968 3067 ft 184 kts 24°
2026-04-24 08:31 57.54265 12.17027 2823 ft 186 kts 24°
2026-04-24 08:31 57.55426 12.18088 2572 ft 188 kts 24°
2026-04-24 08:31 57.56600 12.19160 2319 ft 191 kts 24°
2026-04-24 08:31 57.57792 12.20247 2057 ft 187 kts 25°
2026-04-24 08:32 57.58910 12.21268 1869 ft 171 kts 24°
2026-04-24 08:32 57.59927 12.22195 1627 ft 154 kts 24°
2026-04-24 08:32 57.60846 12.23033 1388 ft 141 kts 24°
2026-04-24 08:32 57.61693 12.23806 1193 ft 132 kts 23°
2026-04-24 08:33 57.62510 12.24548 1032 ft 131 kts 23°
2026-04-24 08:33 57.63334 12.25282 870 ft 130 kts 25°
2026-04-24 08:33 57.64135 12.26020 691 ft 130 kts 25°
2026-04-24 08:33 57.64945 12.26760 516 ft 128 kts 25°
2026-04-24 08:34 57.65673 12.27424 502 ft 95 kts 26°
2026-04-24 08:34 57.66122 12.27834 509 ft 53 kts 26°
2026-04-24 08:34 57.66383 12.28059 511 ft 36 kts 26°
2026-04-24 08:34 57.66578 12.28268 511 ft 25 kts 46°
2026-04-24 08:35 57.66690 12.28522 509 ft 24 kts 54°
2026-04-24 08:35 57.66769 12.28721 506 ft 17 kts 53°
2026-04-24 08:35 57.66825 12.28835 506 ft 11 kts 54°
2026-04-24 08:35 57.66811 12.28965 507 ft 11 kts 118°
2026-04-24 08:36 57.66774 12.29098 508 ft 11 kts 114°
2026-04-24 08:36 57.66743 12.29219 511 ft 9 kts 116°
2026-04-24 08:36 57.66727 12.29277 512 ft 2 kts 116°
2026-04-24 08:36 57.66727 12.29279 512 ft 0 kts 115°